JCSAT-5A (29045 NORAD) Tracking and Keplerian Element Data

This shows tracking and keplerian element data for the satellite.

Feedback or suggestion? Click here.




ElementValue
Catalog29045
NameJCSAT-5A
Epoch Orbit6877
Epoch Day34.76502941
Epoch Year2025
RAAN237.8837
Inclination0.0081
Eccentricity0.0001431
Argument of Perigee67.6367
Mean Anonmoly236.0824
Mean Motion1.00271079
Decay Rate-3.24E-06
L11 29045U 06010A 25034.76502941 -.00000324 00000+0 00000+0 0 9993
L22 29045 0.0081 237.8837 0001431 67.6367 236.0824 1.00271079 68773



Live tracking and technical data element details for JCSAT-5A (NORAD 29045). JCSAT-5A can be tracked NOW for your location showing map with azimuth and elevation plus other details from your city location.







IsCatalogInMostPopularTable: catalog: 29045, numindb: 513
Update: records affected: 1



GetName: 29045 JCSAT-5A

Hit Count: updated at: Thu, 15 May 2025 10:59:44 GMT